Location: Village Green Trailer Park
(32.9148°N, 117.1236°W)
Time: 18:01:37
(UTC+00:00)

Daily predictions for brighter satellites

Satellite Brightness Start Highest point End
(mag) Time Altitude Azimuth Time Altitude Azimuth Time Altitude Azimuth
STARLINK-52 2.8 12:00:04 10° NW 12:03:15 71° SW 12:06:25 10° SE
BREEZE-M DEB (TANK) 3.7 12:02:26 10° W 12:04:29 19° SSW 12:08:02 10° SSE
Cosmos 1328 Rocket 4.4 12:01:03 10° NNW 12:04:54 31° W 12:08:43 10° SSW
Cosmos 1340 3.3 12:01:46 10° SSW 12:05:17 37° W 12:08:48 10° N
Cosmos 158 Rocket 3.9 12:00:24 10° SSW 12:05:27 69° WNW 12:10:24 10° N
STARLINK-1034 4.2 12:02:55 10° WSW 12:06:55 47° NW 12:10:56 10° NNE
Cosmos 2344 3.7 12:00:37 10° SW 12:08:14 62° WNW 12:15:50 10° NNE
Cosmos 1680 Rocket 3.8 12:04:58 10° SSW 12:10:04 53° WNW 12:15:15 10° N
PSLV R/B 4.1 12:06:58 10° N 12:10:52 39° WNW 12:14:46 10° SW
SL-24 R/B - RUBIN 2 4.3 12:05:46 10° SSW 12:11:19 84° WNW 12:17:38 10° NNE
STARLINK-1068 4.3 12:07:57 10° WSW 12:11:54 42° NW 12:15:51 10° NNE
Cosmos 1933 4.4 12:09:02 10° NW 12:12:22 25° W 12:15:42 10° SSW
